TimeCDT,TemperatureF,Dew PointF,Humidity,Sea Level PressureIn,VisibilityMPH,Wind Direction,Wind SpeedMPH,Gust SpeedMPH,PrecipitationIn,Events,Conditions,WindDirDegrees,DateUTC
12:15 AM,6.8,3.2,85,30.13,10.0,NNE,8.1,-,N/A,,Mostly Cloudy,20,2013-03-23 05:15:00
12:35 AM,6.8,1.4,79,30.13,10.0,North,5.8,-,N/A,,Scattered Clouds,10,2013-03-23 05:35:00
12:55 AM,6.8,1.4,79,30.13,10.0,NNE,4.6,-,N/A,,Scattered Clouds,30,2013-03-23 05:55:00
1:15 AM,6.8,1.4,79,30.13,10.0,North,4.6,-,N/A,,Scattered Clouds,10,2013-03-23 06:15:00
1:35 AM,6.8,3.2,85,30.13,10.0,North,4.6,-,N/A,,Overcast,360,2013-03-23 06:35:00
2:15 AM,6.8,1.4,79,30.13,10.0,North,4.6,-,N/A,,Mostly Cloudy,360,2013-03-23 07:15:00
2:35 AM,5.0,1.4,85,30.13,10.0,North,5.8,-,N/A,,Mostly Cloudy,10,2013-03-23 07:35:00
2:55 AM,5.0,1.4,85,30.13,10.0,North,4.6,-,N/A,,Scattered Clouds,360,2013-03-23 07:55:00
3:15 AM,5.0,1.4,85,30.13,10.0,North,4.6,-,N/A,,Mostly Cloudy,10,2013-03-23 08:15:00
3:35 AM,5.0,1.4,85,30.13,10.0,NNE,4.6,-,N/A,,Overcast,20,2013-03-23 08:35:00
3:55 AM,5.0,1.4,85,30.13,10.0,NNE,5.8,-,N/A,,Overcast,20,2013-03-23 08:55:00
4:15 AM,5.0,1.4,85,30.13,10.0,NNE,8.1,-,N/A,,Mostly Cloudy,20,2013-03-23 09:15:00
4:35 AM,3.2,-0.4,85,30.13,10.0,NNE,6.9,-,N/A,,Mostly Cloudy,30,2013-03-23 09:35:00
4:55 AM,5.0,1.4,85,30.13,10.0,NNE,8.1,-,N/A,,Mostly Cloudy,20,2013-03-23 09:55:00
5:15 AM,5.0,-0.4,78,30.13,10.0,NNE,5.8,-,N/A,,Overcast,20,2013-03-23 10:15:00
5:35 AM,5.0,-0.4,78,30.13,10.0,Calm,Calm,-,N/A,,Mostly Cloudy,0,2013-03-23 10:35:00
5:55 AM,5.0,-0.4,78,30.13,10.0,West,5.8,-,N/A,,Mostly Cloudy,280,2013-03-23 10:55:00
6:15 AM,5.0,1.4,85,30.14,10.0,Calm,Calm,-,N/A,,Overcast,0,2013-03-23 11:15:00
6:35 AM,5.0,-0.4,78,30.15,10.0,WNW,4.6,-,N/A,,Overcast,290,2013-03-23 11:35:00
6:55 AM,5.0,-0.4,78,30.15,10.0,Calm,Calm,-,N/A,,Overcast,0,2013-03-23 11:55:00
7:15 AM,5.0,-0.4,78,30.15,10.0,Calm,Calm,-,N/A,,Overcast,0,2013-03-23 12:15:00
7:35 AM,5.0,1.4,85,30.15,10.0,NW,3.5,-,N/A,,Overcast,320,2013-03-23 12:35:00
7:55 AM,3.2,-0.4,85,30.15,10.0,NNW,4.6,-,N/A,,Mostly Cloudy,330,2013-03-23 12:55:00
8:15 AM,3.2,-0.4,85,30.15,10.0,NNW,4.6,-,N/A,,Mostly Cloudy,330,2013-03-23 13:15:00
8:35 AM,3.2,-0.4,85,30.15,10.0,NNW,4.6,-,N/A,,Mostly Cloudy,340,2013-03-23 13:35:00
8:55 AM,3.2,-0.4,85,30.15,10.0,WNW,4.6,-,N/A,,Scattered Clouds,290,2013-03-23 13:55:00
9:15 AM,5.0,-0.4,78,30.15,10.0,NNW,5.8,-,N/A,,Partly Cloudy,330,2013-03-23 14:15:00
9:35 AM,6.8,1.4,79,30.16,10.0,NNW,5.8,-,N/A,,Mostly Cloudy,340,2013-03-23 14:35:00
9:55 AM,6.8,1.4,79,30.16,10.0,West,3.5,-,N/A,,Overcast,280,2013-03-23 14:55:00
10:15 AM,8.6,5.0,85,30.16,10.0,WNW,4.6,-,N/A,,Scattered Clouds,300,2013-03-23 15:15:00
10:35 AM,10.4,6.8,85,30.16,10.0,NW,4.6,-,N/A,,Mostly Cloudy,310,2013-03-23 15:35:00
10:55 AM,12.2,6.8,79,30.17,10.0,WNW,5.8,-,N/A,,Mostly Cloudy,300,2013-03-23 15:55:00
11:15 AM,14.0,8.6,79,30.17,10.0,NW,4.6,-,N/A,,Overcast,320,2013-03-23 16:15:00
11:35 AM,15.8,10.4,79,30.17,10.0,NNW,5.8,-,N/A,,Overcast,330,2013-03-23 16:35:00
11:55 AM,17.6,12.2,79,30.17,10.0,North,5.8,-,N/A,,Overcast,350,2013-03-23 16:55:00
12:15 PM,17.6,14.0,86,30.17,10.0,North,9.2,-,N/A,,Overcast,10,2013-03-23 17:15:00
12:35 PM,17.6,14.0,86,30.16,10.0,North,10.4,-,N/A,,Overcast,360,2013-03-23 17:35:00
12:55 PM,19.4,14.0,80,30.16,10.0,North,9.2,-,N/A,,Overcast,350,2013-03-23 17:55:00
1:15 PM,19.4,14.0,80,30.17,10.0,NNW,9.2,-,N/A,,Overcast,340,2013-03-23 18:15:00
1:35 PM,19.4,15.8,86,30.16,10.0,NNW,8.1,-,N/A,,Overcast,340,2013-03-23 18:35:00
1:55 PM,19.4,15.8,86,30.16,10.0,NNW,8.1,-,N/A,,Overcast,340,2013-03-23 18:55:00
2:15 PM,19.4,15.8,86,30.16,10.0,NNW,9.2,-,N/A,,Overcast,330,2013-03-23 19:15:00
2:35 PM,19.4,15.8,86,30.16,10.0,NW,9.2,-,N/A,,Overcast,320,2013-03-23 19:35:00
2:55 PM,19.4,17.6,93,30.16,10.0,NNW,9.2,-,N/A,,Overcast,340,2013-03-23 19:55:00
3:15 PM,21.2,17.6,86,30.15,10.0,North,10.4,-,N/A,,Overcast,350,2013-03-23 20:15:00
3:35 PM,21.2,17.6,86,30.15,10.0,NNW,9.2,-,N/A,,Overcast,340,2013-03-23 20:35:00
3:55 PM,21.2,17.6,86,30.15,10.0,NNW,10.4,-,N/A,,Overcast,340,2013-03-23 20:55:00
4:15 PM,21.2,17.6,86,30.15,7.0,North,9.2,-,N/A,,Overcast,350,2013-03-23 21:15:00
4:35 PM,21.2,17.6,86,30.15,7.0,NNW,11.5,-,N/A,,Overcast,340,2013-03-23 21:35:00
4:55 PM,21.2,17.6,86,30.15,4.0,North,11.5,-,N/A,Snow,Light Snow,360,2013-03-23 21:55:00
5:15 PM,21.2,17.6,86,30.16,4.0,NNW,11.5,-,N/A,Snow,Light Snow,340,2013-03-23 22:15:00
5:35 PM,21.2,19.4,93,30.16,3.0,NNW,9.2,-,N/A,Rain,Freezing Rain,340,2013-03-23 22:35:00
5:55 PM,21.2,17.6,86,30.16,3.0,NNW,8.1,-,N/A,Rain,Freezing Rain,330,2013-03-23 22:55:00
6:15 PM,21.2,17.6,86,30.17,3.0,NNW,6.9,-,N/A,Rain,Freezing Rain,330,2013-03-23 23:15:00
6:35 PM,19.4,19.4,100,30.17,3.0,NNW,6.9,-,N/A,Rain,Freezing Rain,330,2013-03-23 23:35:00
6:55 PM,19.4,19.4,100,30.17,2.0,NNW,6.9,-,N/A,Rain,Freezing Rain,330,2013-03-23 23:55:00
7:15 PM,19.4,19.4,100,30.17,3.0,NW,6.9,-,N/A,,Overcast,320,2013-03-24 00:15:00
7:35 PM,19.4,19.4,100,30.17,2.5,NW,6.9,-,N/A,Snow,Light Snow,320,2013-03-24 00:35:00
7:55 PM,19.4,19.4,100,30.18,4.0,NW,6.9,-,N/A,,Overcast,310,2013-03-24 00:55:00
8:15 PM,19.4,17.6,93,30.18,8.0,NW,5.8,-,N/A,,Mostly Cloudy,310,2013-03-24 01:15:00
8:35 PM,19.4,17.6,93,30.18,9.0,NW,4.6,-,N/A,,Overcast,310,2013-03-24 01:35:00
8:55 PM,19.4,19.4,100,30.18,7.0,NW,5.8,-,N/A,Snow,Light Snow,320,2013-03-24 01:55:00
9:15 PM,19.4,19.4,100,30.18,7.0,NW,5.8,-,N/A,Snow,Light Snow,320,2013-03-24 02:15:00
9:35 PM,19.4,17.6,93,30.19,7.0,NW,5.8,-,N/A,Snow,Light Snow,310,2013-03-24 02:35:00
9:55 PM,19.4,17.6,93,30.19,5.0,NW,5.8,-,N/A,Snow,Light Snow,310,2013-03-24 02:55:00
10:15 PM,19.4,17.6,93,30.19,5.0,NNW,6.9,-,N/A,Snow,Light Snow,340,2013-03-24 03:15:00
10:35 PM,19.4,17.6,93,30.19,7.0,NNE,8.1,-,N/A,Snow,Light Snow,20,2013-03-24 03:35:00
10:55 PM,17.6,17.6,100,30.19,8.0,NNE,6.9,-,N/A,Snow,Light Snow,20,2013-03-24 03:55:00
11:15 PM,19.4,17.6,93,30.19,5.0,North,6.9,-,N/A,Snow,Light Snow,10,2013-03-24 04:15:00
11:35 PM,17.6,17.6,100,30.18,4.0,North,8.1,-,0.01,Snow,Light Snow,10,2013-03-24 04:35:00
11:55 PM,17.6,15.8,93,30.18,7.0,North,5.8,-,0.02,Snow,Light Snow,360,2013-03-24 04:55:00